Change the Weather History Date:

Monday, June 18, 2012

  Actual Average Record
Temperature  
Mean Temperature 84 °F 73 °F  
Max Temperature 93 °F 83 °F 99 °F (1913)
Min Temperature 75 °F 63 °F 47 °F (1965)
Degree Days  
Heating Degree Days 0 0  
Month to date heating degree days 14  
Since 1 June heating degree days 14  
Since 1 July heating degree days 5580  
Cooling Degree Days 19 8  
Month to date cooling degree days 113  
Year to date cooling degree days 199  
Since 1 June cooling degree days 113  
Growing Degree Days 34 (Base 50)    
Moisture  
Dew Point 65 °F    
Average Humidity 55    
Maximum Humidity 74    
Minimum Humidity 37    
Precipitation  
Precipitation 0.00 in 0.13 in 4.78 in (1973)
Month to date precipitation 2.48  
Year to date precipitation 16.57  
Sea Level Pressure  
Sea Level Pressure 29.73 in    
Wind  
Wind Speed 15 mph (SSW)    
Max Wind Speed 28 mph    
Max Gust Speed 39 mph    
Visibility 10 miles    
Events      
T = Trace of Precipitation, MM = Missing Value Source: NWS Daily Summary

Daily Weather History Graph

Daily Weather History Graph

Search for Another Location

Airport or City:

Trip Planner

Search our weather history database for the weather conditions in past years. The results will help you decide how hot, cold, wet, or windy it might be!

Date:

Astronomy

Jun. 18, 2012 Rise Set
Actual Time 5:35 AM CDT 8:36 PM CDT
Civil Twilight 5:03 AM CDT 9:09 PM CDT
Nautical Twilight 4:21 AM CDT 9:50 PM CDT
Astronomical Twilight 3:32 AM CDT 10:39 PM CDT
Moon 4:50 AM CDT (6/18) 7:55 PM CDT (6/18)
Length of Visible Light 16h 06m
Length of Day
15h 00m
Waning Crescent, 1% of the Moon is Illuminated
Jun 18
Waning Crescent
Jun 19
New
Jun 26
First Quarter
Jul 3
Full
Jul 10
Last Quarter

Hourly Weather History & Observations

Time (CDT) Temp. Heat Index Dew Point Humidity Pressure Visibility Wind Dir Wind Speed Gust Speed Precip Events Conditions
12:54 AM 78.1 °F - 68.0 °F 71% 29.74 in 10.0 mi South 9.2 mph - N/A   Clear
1:54 AM 78.1 °F - 66.9 °F 68% 29.73 in 10.0 mi South 12.7 mph - N/A   Clear
2:54 AM 77.0 °F - 66.9 °F 71% 29.73 in 10.0 mi South 11.5 mph - N/A   Clear
3:54 AM 75.9 °F - 66.9 °F 74% 29.72 in 10.0 mi SSW 12.7 mph - N/A   Clear
4:54 AM 75.9 °F - 66.0 °F 71% 29.72 in 10.0 mi SSW 12.7 mph 21.9 mph N/A   Clear
5:54 AM 75.0 °F - 64.9 °F 71% 29.73 in 10.0 mi SSW 13.8 mph - N/A   Clear
6:54 AM 75.9 °F - 66.0 °F 71% 29.74 in 10.0 mi SSW 13.8 mph - N/A   Clear
7:54 AM 79.0 °F - 66.0 °F 64% 29.75 in 10.0 mi SSW 19.6 mph 24.2 mph N/A   Clear
8:54 AM 81.0 °F 83.3 °F 66.9 °F 62% 29.75 in 10.0 mi SSW 18.4 mph 28.8 mph N/A   Clear
9:54 AM 84.0 °F 86.5 °F 66.9 °F 56% 29.74 in 10.0 mi SW 18.4 mph 27.6 mph N/A   Clear
10:54 AM 86.0 °F 89.4 °F 68.0 °F 55% 29.75 in 10.0 mi SSW 20.7 mph 28.8 mph N/A   Clear
11:54 AM 88.0 °F 90.7 °F 66.9 °F 49% 29.74 in 10.0 mi SW 21.9 mph 31.1 mph N/A   Clear
12:54 PM 90.0 °F 92.8 °F 66.9 °F 46% 29.73 in 10.0 mi South 21.9 mph 32.2 mph N/A   Clear
1:54 PM 91.0 °F 93.0 °F 64.9 °F 42% 29.72 in 10.0 mi SSW 25.3 mph 34.5 mph N/A   Clear
2:54 PM 93.0 °F 95.0 °F 64.9 °F 39% 29.71 in 10.0 mi SSW 21.9 mph 34.5 mph N/A   Clear
3:54 PM 93.0 °F 94.2 °F 63.0 °F 37% 29.70 in 10.0 mi South 26.5 mph 35.7 mph N/A   Clear
4:54 PM 93.0 °F 94.6 °F 64.0 °F 38% 29.69 in 10.0 mi SSW 27.6 mph 39.1 mph N/A   Clear
5:54 PM 91.9 °F 94.1 °F 64.9 °F 41% 29.70 in 10.0 mi SSW 21.9 mph 29.9 mph N/A   Clear
6:54 PM 89.1 °F 91.3 °F 66.0 °F 46% 29.70 in 10.0 mi SSW 16.1 mph 27.6 mph N/A   Clear
7:54 PM 87.1 °F 88.9 °F 64.9 °F 48% 29.71 in 10.0 mi South 15.0 mph - N/A   Clear
8:54 PM 84.0 °F 85.4 °F 64.0 °F 51% 29.73 in 10.0 mi SSW 16.1 mph 21.9 mph N/A   Clear
9:54 PM 82.9 °F 83.3 °F 61.0 °F 47% 29.75 in 10.0 mi South 12.7 mph - N/A   Clear
10:54 PM 81.0 °F 81.6 °F 60.1 °F 49% 29.78 in 10.0 mi South 10.4 mph - N/A   Clear
11:54 PM 80.1 °F 81.2 °F 62.1 °F 54% 29.80 in 10.0 mi South 12.7 mph 20.7 mph N/A   Clear